Aeroporto :
LOGIN :

Iscrizione | Disclaimer

   EN    FR    IT 

 










Sommario :    VFR   VFR Marginale   IFR   IFR Intensivo   IFR Molto Intensivo
Visibilità : 
Base nubi : 
>= 8 km
>= 3000ft
5 / 8 km
1000 / 3000 ft
1500m / 5 km
500 / 1000 ft
800 / 1500m
200 / 500 ft
< 800m
< 200 ft
Simboli :   Temporali  Nebbia  Neve Forte  Precipitazioni Forti  Vento > 20 kt
SIGMETs :   Varie  Temporali  Ghiacco  Turbolenza  Onda orograficha  Ceneri Vulcaniche







- Altitudine del aeroporto : 538 ft
- Codice IATA : TNF
- Carte del aeroporto


LFPN - Toussus Le Noble

ULTIMO METAR :
  • 211000Z AUTO 28017G31KT 9999 SCT033 16/08 Q1014 NOSIG

METARs OBSOLETI :
  • 210930Z AUTO 28014KT 250V310 9999 SCT030 15/09 Q1013 TEMPO 28015G28KT
  • 210900Z AUTO 29013KT 260V320 CAVOK 15/10 Q1013 TEMPO 28015G28KT
  • 210830Z AUTO 27011KT 240V300 CAVOK 14/11 Q1012 TEMPO 29015G28KT
  • 210800Z AUTO 27011KT 240V300 9999 FEW019 SCT048 BKN150 14/11 Q1012 TEMPO 29015G28KT
  • 210730Z AUTO 27011KT 230V300 9999 BKN037 OVC074 14/12 Q1011 TEMPO 29015G28KT

TAF TAF LFPN
Valido dal 21 a 09 ore il 21 a 18 ore UTC


210800Z 2109/2118 28012KT 9999 BKN030
TEMPO 2109/2115 28015G28KT
ATIS : +33 1 39 56 54 70
Nessun NOTAM noto per questo aeroporto.



MetMap, La meteo Aeronautica in un colpo d'occhio ! - Copyright ORBIFLY Dicembre 2007 - Disclaimer

ORBIFLY MET'MAP TEAM :

Programmazione e sviluppo : Alexandra Zaïnal
Concezione e sviluppo : Baudouin d'Aumeries
Co-Programmazione e sviluppo : Marc-Olivier Méhu
Supporto tecnico e logistico : Manuel Goepfert
Aiuto per la traduzione : Arnaldo La Scala

Contatto : metmap@orbifly.com




FONTI E CREDITI :

   NOAA